When you browse on this site, cookies collect data to enhance your experience and personalize the content and advertising you see.
Visit our Privacy Policy to learn more. By continuing to use the site, you agree to this use of cookies and data.
  • In Czech Republic
  • List of Countries
  • For 7 days
  • Water Temperature
  • Satellite Maps
  • Weather Map
  • Weather Widgets
  • user-avatar
    Login

    Hourly Weather Duchan

    Today, 19 April, Friday

    Time Temperature Precipitation Wind Pressure Humidity
    00:00 +32°C° 0 mm 5 mps 753 mmHg 27%
    01:00 +32°C° 0 mm 5 mps 753 mmHg 28%
    02:00 +30°C° 0 mm 5 mps 752 mmHg 29%
    03:00 +30°C° 0 mm 5 mps 752 mmHg 32%
    04:00 +29°C° 0 mm 5 mps 752 mmHg 34%
    05:00 +29°C° 0 mm 6 mps 753 mmHg 36%
    06:00 +29°C° 0 mm 6 mps 753 mmHg 38%
    07:00 +32°C° 0 mm 6 mps 753 mmHg 31%
    08:00 +35°C° 0 mm 6 mps 753 mmHg 23%
    09:00 +38°C° 0 mm 6 mps 753 mmHg 14%
    10:00 +40°C° 0 mm 6 mps 753 mmHg 12%
    11:00 +42°C° 0 mm 6 mps 753 mmHg 9%
    12:00 +44°C° 0 mm 6 mps 753 mmHg 7%
    13:00 +43°C° 0 mm 5 mps 752 mmHg 7%
    14:00 +45°C° 0 mm 5 mps 752 mmHg 7%
    15:00 +45°C° 0 mm 5 mps 751 mmHg 7%
    16:00 +43°C° 0 mm 5 mps 751 mmHg 8%
    17:00 +42°C° 0 mm 5 mps 751 mmHg 9%
    18:00 +41°C° 0 mm 5 mps 751 mmHg 10%
    19:00 +39°C° 0 mm 5 mps 751 mmHg 13%
    20:00 +37°C° 0 mm 4 mps 752 mmHg 16%
    21:00 +36°C° 0 mm 4 mps 752 mmHg 20%
    22:00 +34°C° 0 mm 5 mps 752 mmHg 27%
    23:00 +32°C° 0 mm 5 mps 752 mmHg 34%

    Tomorrow, 20 April, Saturday

    Time Temperature Precipitation Wind Pressure Humidity
    00:00 +30°C° 0 mm 6 mps 752 mmHg 41%
    01:00 +29°C° 0 mm 5 mps 752 mmHg 42%
    02:00 +29°C° 0 mm 5 mps 752 mmHg 43%
    03:00 +29°C° 0 mm 4 mps 751 mmHg 43%
    04:00 +29°C° 0 mm 4 mps 752 mmHg 43%
    05:00 +29°C° 0 mm 3 mps 752 mmHg 42%
    06:00 +29°C° 0 mm 3 mps 752 mmHg 42%
    07:00 +30°C° 0 mm 2 mps 752 mmHg 38%
    08:00 +32°C° 0 mm 2 mps 752 mmHg 34%
    09:00 +33°C° 0 mm 1 mps 752 mmHg 31%
    10:00 +34°C° 0 mm 1 mps 752 mmHg 27%
    11:00 +36°C° 0 mm 1 mps 752 mmHg 24%
    12:00 +37°C° 0 mm 1 mps 752 mmHg 21%
    13:00 +39°C° 0 mm 2 mps 751 mmHg 20%
    14:00 +39°C° 0 mm 3 mps 751 mmHg 20%
    15:00 +39°C° 0 mm 3 mps 750 mmHg 19%
    16:00 +38°C° 0 mm 4 mps 750 mmHg 23%
    17:00 +37°C° 0 mm 5 mps 750 mmHg 27%
    18:00 +36°C° 0 mm 6 mps 750 mmHg 31%
    19:00 +34°C° 0 mm 6 mps 751 mmHg 34%
    20:00 +33°C° 0 mm 6 mps 751 mmHg 38%
    21:00 +32°C° 0 mm 7 mps 752 mmHg 42%
    22:00 +30°C° 0 mm 6 mps 752 mmHg 43%
    23:00 +30°C° 0 mm 6 mps 751 mmHg 45%

    Day after tomorrow, 21 April, Sunday

    Time Temperature Precipitation Wind Pressure Humidity
    00:00 +29°C° 0 mm 6 mps 751 mmHg 47%
    01:00 +29°C° 0 mm 5 mps 751 mmHg 48%
    02:00 +28°C° 0 mm 5 mps 751 mmHg 49%
    03:00 +28°C° 0 mm 4 mps 751 mmHg 49%
    04:00 +28°C° 0 mm 5 mps 751 mmHg 50%
    05:00 +28°C° 0 mm 5 mps 752 mmHg 50%
    06:00 +28°C° 0 mm 6 mps 752 mmHg 50%
    07:00 +29°C° 0 mm 6 mps 752 mmHg 47%
    08:00 +30°C° 0 mm 6 mps 752 mmHg 44%
    09:00 +30°C° 0 mm 6 mps 753 mmHg 40%
    10:00 +32°C° 0.1 mm 6 mps 752 mmHg 38%
    11:00 +33°C° 0.1 mm 6 mps 752 mmHg 35%
    12:00 +34°C° 0.1 mm 6 mps 752 mmHg 32%
    13:00 +34°C° 0.1 mm 6 mps 751 mmHg 31%
    14:00 +34°C° 0.1 mm 5 mps 751 mmHg 30%
    15:00 +35°C° 0.1 mm 5 mps 751 mmHg 29%
    16:00 +34°C° 0.1 mm 4 mps 750 mmHg 31%
    17:00 +33°C° 0.1 mm 3 mps 750 mmHg 33%
    18:00 +31°C° 0.1 mm 2 mps 750 mmHg 35%
    19:00 +31°C° 0.3 mm 2 mps 751 mmHg 37%
    20:00 +30°C° 0.3 mm 2 mps 751 mmHg 39%
    21:00 +30°C° 0.3 mm 2 mps 752 mmHg 42%
    22:00 +29°C° 0.3 mm 2 mps 751 mmHg 44%
    23:00 +29°C° 0.3 mm 2 mps 751 mmHg 46%

    22 April, Monday

    Time Temperature Precipitation Wind Pressure Humidity
    00:00 +28°C° 0.3 mm 2 mps 751 mmHg 49%
    01:00 +28°C° 0.1 mm 3 mps 751 mmHg 49%
    02:00 +28°C° 0.1 mm 3 mps 750 mmHg 49%
    03:00 +28°C° 0.1 mm 3 mps 750 mmHg 48%
    04:00 +28°C° 0 mm 2 mps 750 mmHg 48%
    05:00 +28°C° 0 mm 2 mps 750 mmHg 48%
    06:00 +28°C° 0 mm 1 mps 751 mmHg 47%
    07:00 +29°C° 0 mm 1 mps 751 mmHg 45%
    08:00 +30°C° 0 mm 1 mps 751 mmHg 42%
    09:00 +31°C° 0 mm 2 mps 752 mmHg 39%
    10:00 +32°C° 0 mm 2 mps 752 mmHg 35%
    11:00 +35°C° 0 mm 2 mps 752 mmHg 31%
    12:00 +37°C° 0 mm 2 mps 752 mmHg 27%
    13:00 +37°C° 0 mm 4 mps 751 mmHg 29%
    14:00 +36°C° 0 mm 6 mps 751 mmHg 31%
    15:00 +37°C° 0 mm 8 mps 750 mmHg 33%
    16:00 +35°C° 0.1 mm 8 mps 751 mmHg 35%
    17:00 +34°C° 0.1 mm 7 mps 751 mmHg 38%
    18:00 +33°C° 0.1 mm 6 mps 751 mmHg 40%
    19:00 +32°C° 0.1 mm 6 mps 752 mmHg 43%
    20:00 +30°C° 0.1 mm 6 mps 752 mmHg 46%
    21:00 +29°C° 0.1 mm 6 mps 753 mmHg 49%
    22:00 +29°C° 0 mm 7 mps 753 mmHg 49%
    23:00 +28°C° 0 mm 8 mps 753 mmHg 49%

    23 April, Tuesday

    Time Temperature Precipitation Wind Pressure Humidity
    00:00 +27°C° 0 mm 9 mps 753 mmHg 49%
    01:00 +27°C° 0 mm 10 mps 753 mmHg 48%
    02:00 +26°C° 0 mm 11 mps 754 mmHg 47%
    03:00 +26°C° 0 mm 11 mps 754 mmHg 45%
    04:00 +26°C° 0 mm 11 mps 754 mmHg 44%
    05:00 +26°C° 0 mm 11 mps 755 mmHg 43%
    06:00 +26°C° 0 mm 11 mps 756 mmHg 41%
    07:00 +27°C° 0 mm 11 mps 756 mmHg 39%
    08:00 +27°C° 0 mm 11 mps 757 mmHg 36%
    09:00 +28°C° 0 mm 10 mps 757 mmHg 34%
    10:00 +28°C° 0 mm 10 mps 757 mmHg 32%
    11:00 +28°C° 0 mm 10 mps 757 mmHg 30%
    12:00 +29°C° 0 mm 10 mps 757 mmHg 29%
    13:00 +28°C° 0 mm 10 mps 757 mmHg 29%
    14:00 +28°C° 0 mm 11 mps 756 mmHg 30%
    15:00 +27°C° 0 mm 11 mps 756 mmHg 30%
    16:00 +27°C° 0 mm 11 mps 757 mmHg 32%
    17:00 +26°C° 0 mm 11 mps 757 mmHg 35%
    18:00 +24°C° 0 mm 11 mps 757 mmHg 37%
    19:00 +24°C° 0 mm 11 mps 758 mmHg 36%
    20:00 +24°C° 0 mm 10 mps 758 mmHg 35%
    21:00 +24°C° 0 mm 9 mps 759 mmHg 35%
    22:00 +24°C° 0 mm 8 mps 758 mmHg 36%
    23:00 +23°C° 0 mm 7 mps 758 mmHg 37%

    24 April, Wednesday

    Time Temperature Precipitation Wind Pressure Humidity
    00:00 +23°C° 0 mm 7 mps 758 mmHg 38%
    01:00 +23°C° 0 mm 7 mps 758 mmHg 40%
    02:00 +23°C° 0 mm 7 mps 757 mmHg 41%
    03:00 +23°C° 0 mm 7 mps 757 mmHg 43%
    04:00 +23°C° 0 mm 7 mps 758 mmHg 44%
    05:00 +23°C° 0 mm 8 mps 758 mmHg 46%
    06:00 +23°C° 0 mm 8 mps 759 mmHg 47%
    07:00 +24°C° 0 mm 8 mps 759 mmHg 41%
    08:00 +26°C° 0 mm 9 mps 759 mmHg 35%
    09:00 +27°C° 0 mm 9 mps 759 mmHg 30%
    10:00 +28°C° 0 mm 9 mps 759 mmHg 29%
    11:00 +28°C° 0 mm 9 mps 759 mmHg 28%
    12:00 +28°C° 0 mm 9 mps 758 mmHg 27%
    13:00 +28°C° 0 mm 9 mps 758 mmHg 27%
    14:00 +28°C° 0 mm 9 mps 758 mmHg 28%
    15:00 +28°C° 0 mm 9 mps 757 mmHg 29%
    16:00 +27°C° 0 mm 9 mps 757 mmHg 31%
    17:00 +26°C° 0 mm 9 mps 758 mmHg 34%
    18:00 +24°C° 0 mm 9 mps 758 mmHg 37%
    19:00 +24°C° 0 mm 8 mps 758 mmHg 38%
    20:00 +24°C° 0 mm 7 mps 758 mmHg 39%
    21:00 +24°C° 0 mm 7 mps 758 mmHg 40%
    22:00 +24°C° 0 mm 6 mps 758 mmHg 41%
    23:00 +23°C° 0 mm 6 mps 758 mmHg 42%
    Show more